�N����,����,�~����,�C��,���x,�C��,����,���ϕ���,�ő�u�ԕ���,�ő厞����,���˗�,�I�_���x,�n�����x,�ő啗���N��,DTYPE
"20/07/13","00:10",0.0,19.1,89.9,1005.0,304.0,0.8,1.4,323.4,0.00,17.4,23.4,"00:00:24",1
"20/07/13","00:20",0.0,19.1,90.0,1005.2,310.8,0.6,1.2,324.1,0.00,17.5,23.5,"00:16:24",1
"20/07/13","00:30",0.0,19.1,90.3,1005.2,319.9,1.1,1.4,332.5,0.00,17.5,23.6,"00:20:24",1
"20/07/13","00:40",0.0,19.1,90.5,1005.0,301.8,1.0,1.4,322.7,0.00,17.5,23.4,"00:34:32",1
"20/07/13","00:50",0.0,19.1,90.7,1005.2,315.7,1.3,1.8,325.0,0.00,17.6,23.5,"00:43:52",1
"20/07/13","01:00",0.0,19.1,90.8,1005.0,312.5,1.5,2.2,333.9,0.00,17.6,23.6,"00:53:12",1
"20/07/13","01:10",0.0,19.1,91.0,1004.8,310.5,1.5,2.4,310.3,0.00,17.6,23.4,"01:06:56",1
"20/07/13","01:20",0.0,19.1,91.0,1005.0,318.0,2.0,2.8,333.1,0.00,17.6,23.2,"01:17:52",1
"20/07/13","01:30",0.0,19.2,90.8,1005.0,318.7,2.1,3.4,332.1,0.00,17.7,23.3,"01:21:44",1
"20/07/13","01:40",0.0,19.3,90.7,1005.2,321.9,2.0,2.8,335.7,0.00,17.8,23.4,"01:31:52",1
"20/07/13","01:50",0.0,19.4,90.3,1005.5,327.2,2.1,3.6,326.4,0.00,17.8,23.3,"01:46:24",1
"20/07/13","02:00",0.0,19.4,90.0,1005.5,321.0,1.5,2.9,318.8,0.00,17.8,23.2,"01:50:08",1
"20/07/13","02:10",0.0,19.3,89.9,1005.7,310.0,1.0,1.9,325.1,0.00,17.6,23.2,"02:02:48",1
"20/07/13","02:20",0.0,19.3,89.7,1005.5,302.8,1.0,2.2,331.4,0.00,17.6,23.1,"02:12:32",1
"20/07/13","02:30",0.0,19.3,89.6,1005.5,312.1,1.5,2.8,333.5,0.00,17.6,22.9,"02:22:24",1
"20/07/13","02:40",0.0,19.3,89.4,1005.7,319.7,1.1,2.0,301.2,0.00,17.6,23.2,"02:31:12",1
"20/07/13","02:50",0.0,19.2,89.4,1006.0,298.6,0.7,1.4,330.5,0.00,17.5,23.1,"02:41:20",1
"20/07/13","03:00",0.0,19.1,89.3,1006.0,272.8,0.6,1.1,307.3,0.00,17.3,23.0,"02:57:20",1
"20/07/13","03:10",0.0,19.0,89.3,1006.0,305.2,0.8,1.6,307.9,0.00,17.2,22.9,"03:00:40",1
"20/07/13","03:20",0.0,19.0,89.4,1006.0,335.7,1.2,2.1,338.0,0.00,17.3,22.8,"03:16:00",1
"20/07/13","03:30",0.0,19.1,89.5,1006.0,336.5,1.6,2.6,344.9,0.00,17.4,22.8,"03:25:36",1
"20/07/13","03:40",0.0,19.1,89.6,1005.7,337.9,1.6,3.3,341.7,0.00,17.4,23.1,"03:38:16",1
"20/07/13","03:50",0.0,19.2,89.7,1006.2,335.5,1.5,3.1,349.2,0.00,17.5,23.0,"03:45:28",1
"20/07/13","04:00",0.0,19.2,89.8,1006.0,332.1,1.7,2.8,335.1,0.00,17.5,22.8,"03:56:32",1
"20/07/13","04:10",0.0,19.2,89.7,1006.0,328.9,2.1,3.4,332.9,0.00,17.5,22.7,"04:04:08",1
"20/07/13","04:20",0.0,19.2,89.7,1006.2,322.8,1.7,2.7,345.0,0.00,17.5,22.8,"04:10:08",1
"20/07/13","04:30",0.0,19.2,89.6,1006.2,321.1,1.7,2.8,337.2,0.00,17.5,22.8,"04:20:32",1
"20/07/13","04:40",0.0,19.2,89.6,1006.2,318.4,1.2,2.0,319.6,0.00,17.5,22.7,"04:32:00",1
"20/07/13","04:50",0.0,19.1,89.6,1006.2,308.6,1.2,2.5,340.8,0.00,17.4,22.6,"04:47:12",1
"20/07/13","05:00",0.0,19.1,89.6,1006.2,318.6,1.2,2.1,326.5,0.00,17.4,22.7,"04:52:48",1
"20/07/13","05:10",0.0,19.1,89.7,1006.4,286.6,0.8,1.8,309.4,0.00,17.4,22.8,"05:07:12",1
"20/07/13","05:20",0.0,19.2,89.9,1006.4,324.1,1.3,2.0,325.0,0.00,17.5,22.7,"05:14:40",1
"20/07/13","05:30",0.0,19.2,90.0,1006.2,300.1,1.0,1.9,306.8,0.00,17.6,22.6,"05:28:48",1
"20/07/13","05:40",0.0,19.4,90.0,1006.4,283.8,1.0,1.4,301.1,0.00,17.8,22.7,"05:34:08",1
"20/07/13","05:50",0.0,19.5,90.1,1006.4,313.5,1.5,2.2,327.8,0.00,17.9,22.7,"05:45:36",1
"20/07/13","06:00",0.0,19.5,90.2,1006.2,317.4,1.5,2.7,340.5,0.01,17.9,22.5,"05:52:56",1
"20/07/13","06:10",0.0,19.6,90.2,1006.2,300.9,1.2,2.4,313.3,0.01,18.0,22.5,"06:08:40",1
"20/07/13","06:20",0.0,19.6,90.2,1006.4,312.0,1.5,3.5,336.6,0.00,18.0,22.6,"06:17:20",1
"20/07/13","06:30",0.0,19.6,90.2,1006.2,325.3,1.5,2.5,334.5,0.01,18.0,22.7,"06:24:08",1
"20/07/13","06:40",0.0,19.7,90.1,1006.2,316.4,1.3,2.7,322.2,0.01,18.1,22.7,"06:37:12",1
"20/07/13","06:50",0.0,19.8,90.1,1006.4,313.2,1.3,2.4,326.1,0.02,18.2,22.7,"06:45:44",1
"20/07/13","07:00",0.0,19.9,90.1,1006.9,306.4,1.3,2.2,331.3,0.03,18.3,22.7,"06:54:56",1
"20/07/13","07:10",0.0,19.9,90.1,1006.7,305.5,1.3,2.0,334.6,0.03,18.3,22.7,"07:00:08",1
"20/07/13","07:20",0.0,20.1,90.1,1006.2,322.7,1.3,2.5,324.7,0.04,18.5,22.7,"07:11:28",1
"20/07/13","07:30",0.0,20.2,90.1,1006.2,329.0,1.1,1.9,315.0,0.05,18.6,22.7,"07:25:36",1
"20/07/13","07:40",0.0,20.3,90.1,1006.0,331.8,1.2,2.2,337.5,0.06,18.7,22.7,"07:37:20",1
"20/07/13","07:50",0.0,20.4,89.9,1006.0,331.6,1.2,2.0,332.4,0.07,18.7,22.8,"07:44:40",1
"20/07/13","08:00",0.0,20.5,89.8,1006.0,313.4,1.0,1.6,331.2,0.06,18.8,22.8,"07:54:48",1
"20/07/13","08:10",0.0,20.6,89.7,1005.7,318.8,1.0,1.4,336.6,0.06,18.9,22.8,"08:02:00",1
"20/07/13","08:20",0.0,20.8,89.5,1005.7,306.8,1.1,1.7,321.5,0.08,19.1,23.0,"08:15:52",1
"20/07/13","08:30",0.0,21.1,89.3,1006.2,311.6,0.6,1.8,339.8,0.10,19.3,23.0,"08:21:20",1
"20/07/13","08:40",0.0,21.2,88.7,1005.7,294.2,0.6,1.1,278.4,0.10,19.3,23.1,"08:32:08",1
"20/07/13","08:50",0.0,21.1,88.3,1005.5,323.3,0.7,1.2,336.4,0.07,19.1,23.2,"08:49:28",1
"20/07/13","09:00",0.0,21.2,88.0,1006.0,272.1,0.5,1.1,330.9,0.05,19.2,23.3,"08:50:24",1
"20/07/13","09:10",0.2,21.3,87.8,1006.0,279.0,0.7,1.1,273.5,0.05,19.2,23.1,"09:02:00",1
"20/07/13","09:20",0.0,21.1,87.6,1006.4,272.0,0.7,1.3,240.0,0.07,19.0,23.0,"09:15:52",1
"20/07/13","09:30",0.2,21.1,87.5,1006.0,263.7,0.7,1.2,261.4,0.06,19.0,23.2,"09:28:56",1
"20/07/13","09:40",0.0,21.0,87.5,1006.0,319.8,1.0,1.4,317.1,0.05,18.9,23.2,"09:31:28",1
"20/07/13","09:50",0.4,21.1,87.6,1005.7,288.7,0.5,1.0,294.1,0.08,19.0,23.1,"09:41:12",1
"20/07/13","10:00",0.4,21.1,87.3,1006.0,307.4,0.5,1.1,310.9,0.05,18.9,23.1,"09:52:08",1
"20/07/13","10:10",0.4,21.0,87.4,1006.2,278.1,0.6,1.1,262.6,0.05,18.9,23.1,"10:06:16",1
"20/07/13","10:20",0.8,20.6,87.9,1006.2,257.1,0.5,1.3,234.5,0.04,18.6,23.3,"10:12:56",1
"20/07/13","10:30",1.0,20.9,88.3,1006.2,237.3,0.5,1.1,211.3,0.05,18.9,23.3,"10:26:48",1
"20/07/13","10:40",0.4,20.5,88.7,1006.0,187.9,0.2,1.0,231.9,0.04,18.6,23.2,"10:30:32",1
"20/07/13","10:50",0.4,20.5,88.9,1006.2,277.8,0.2,0.9,300.7,0.04,18.6,23.1,"10:45:44",1
"20/07/13","11:00",0.6,20.5,89.0,1006.0,280.7,0.3,0.8,321.3,0.04,18.7,23.0,"10:58:16",1
"20/07/13","11:10",0.2,20.5,89.3,1006.0,252.2,0.3,1.2,228.7,0.05,18.7,23.2,"11:08:16",1
"20/07/13","11:20",0.2,20.5,89.5,1006.4,237.5,0.2,1.0,235.3,0.06,18.8,23.4,"11:13:04",1
"20/07/13","11:30",0.4,20.7,89.7,1005.7,284.0,0.2,0.6,10.9,0.06,19.0,23.1,"11:26:56",1
"20/07/13","11:40",0.2,20.5,89.8,1006.0,230.8,0.3,0.9,227.2,0.05,18.8,23.1,"11:35:52",1
"20/07/13","11:50",0.4,20.7,89.9,1005.7,333.1,0.3,1.2,341.0,0.05,19.0,23.2,"11:48:16",1
"20/07/13","12:00",0.4,20.6,90.2,1006.0,327.6,0.5,1.6,340.5,0.05,19.0,23.0,"11:53:44",1
"20/07/13","12:10",0.2,20.9,90.5,1006.2,331.9,0.5,1.1,349.7,0.09,19.3,23.2,"12:04:16",1
"20/07/13","12:20",0.2,20.8,90.7,1005.7,49.8,0.5,0.9,32.6,0.05,19.3,23.4,"12:14:16",1
"20/07/13","12:30",0.0,20.7,90.9,1006.0,26.8,0.6,1.1,16.3,0.04,19.2,23.3,"12:27:52",1
"20/07/13","12:40",0.2,20.6,91.2,1006.0,342.3,0.6,1.2,353.6,0.02,19.2,23.1,"12:30:08",1
"20/07/13","12:50",0.4,20.7,91.5,1006.2,353.0,0.7,1.4,12.8,0.02,19.3,23.3,"12:41:36",1
"20/07/13","13:00",0.2,20.6,91.8,1006.0,353.4,0.7,1.4,62.8,0.04,19.3,22.9,"12:51:12",1
"20/07/13","13:10",0.4,20.7,92.0,1006.0,351.6,0.6,1.6,357.5,0.03,19.4,23.0,"13:06:40",1
"20/07/13","13:20",0.2,20.6,92.2,1005.2,98.2,0.6,1.6,94.7,0.05,19.3,23.2,"13:18:16",1
"20/07/13","13:30",0.4,20.5,92.4,1005.5,116.1,0.7,2.0,51.0,0.04,19.3,23.2,"13:23:12",1
"20/07/13","13:40",0.6,20.4,92.6,1005.7,40.4,0.5,1.0,347.3,0.02,19.2,23.2,"13:38:16",1
"20/07/13","13:50",0.6,20.5,92.8,1005.7,308.6,0.7,1.6,334.2,0.05,19.3,23.3,"13:46:40",1
"20/07/13","14:00",0.2,20.5,92.9,1005.2,346.9,0.5,1.3,331.4,0.05,19.4,23.0,"13:51:28",1
"20/07/13","14:10",0.0,20.6,93.0,1005.0,21.7,0.2,0.6,122.5,0.04,19.5,23.1,"14:00:08",1
"20/07/13","14:20",0.2,20.6,93.1,1005.2,313.7,0.7,1.3,340.1,0.05,19.5,23.3,"14:14:48",1
"20/07/13","14:30",0.2,20.6,93.1,1005.2,282.3,0.3,0.8,284.1,0.04,19.5,23.2,"14:20:24",1
"20/07/13","14:40",0.2,20.6,93.2,1005.2,297.1,0.5,1.8,74.7,0.03,19.5,23.1,"14:39:20",1
"20/07/13","14:50",0.4,20.5,93.3,1005.5,266.6,0.5,1.8,204.6,0.03,19.4,23.1,"14:41:44",1
"20/07/13","15:00",0.2,20.6,93.3,1005.2,320.2,0.3,0.8,322.0,0.03,19.5,23.2,"14:53:52",1
"20/07/13","15:10",0.2,20.5,93.5,1005.5,100.3,0.3,1.1,116.8,0.03,19.5,23.2,"15:05:36",1
"20/07/13","15:20",0.2,20.5,93.5,1005.0,313.8,0.3,0.9,300.7,0.02,19.5,23.0,"15:14:16",1
"20/07/13","15:30",0.2,20.6,93.5,1004.8,318.9,0.5,1.3,231.5,0.03,19.6,23.1,"15:29:44",1
"20/07/13","15:40",0.0,20.4,93.7,1004.5,308.4,0.7,1.6,347.8,0.02,19.4,23.2,"15:37:36",1
"20/07/13","15:50",0.2,20.5,93.7,1004.5,257.7,0.6,1.3,257.1,0.03,19.5,23.2,"15:45:28",1
"20/07/13","16:00",0.0,20.5,93.7,1004.3,285.9,0.3,1.0,318.4,0.03,19.5,23.1,"15:53:12",1
"20/07/13","16:10",0.2,20.5,93.9,1004.3,299.0,0.3,1.0,299.5,0.03,19.5,23.1,"16:05:44",1
"20/07/13","16:20",0.0,20.4,93.9,1004.3,274.8,0.6,1.4,227.2,0.02,19.4,23.1,"16:17:28",1
"20/07/13","16:30",0.2,20.3,94.0,1004.1,229.3,0.6,1.6,230.5,0.01,19.3,22.9,"16:22:56",1
"20/07/13","16:40",0.2,20.3,94.0,1004.1,298.2,0.7,1.7,234.2,0.00,19.3,23.0,"16:30:02",1
"20/07/13","16:50",0.2,20.2,94.2,1004.1,184.8,0.6,1.6,234.9,0.00,19.3,23.0,"16:40:08",1
"20/07/13","17:00",0.4,20.3,94.2,1004.1,307.8,0.6,1.1,49.8,0.00,19.4,23.0,"16:56:48",1
"20/07/13","17:10",0.2,20.4,94.2,1003.8,282.4,0.7,1.9,345.2,0.00,19.5,23.0,"17:06:24",1
"20/07/13","17:20",0.4,20.4,94.3,1003.6,308.2,0.5,1.2,316.2,0.00,19.5,23.1,"17:16:16",1
"20/07/13","17:30",0.2,20.2,94.3,1003.8,264.2,0.2,1.1,245.9,0.00,19.3,23.1,"17:24:24",1
"20/07/13","17:40",0.4,20.3,94.4,1003.6,275.1,0.1,0.5,352.1,0.00,19.4,23.0,"17:32:16",1
"20/07/13","17:50",0.2,20.3,94.4,1004.1,287.2,0.5,1.3,232.8,0.00,19.4,23.0,"17:44:48",1
"20/07/13","18:00",0.2,20.2,94.6,1003.6,278.9,0.3,0.9,238.7,0.00,19.3,23.0,"17:58:40",1
"20/07/13","18:10",0.4,20.2,94.6,1003.4,301.9,0.5,0.9,230.8,0.00,19.3,22.8,"18:01:20",1
"20/07/13","18:20",0.0,20.2,94.6,1003.4,251.6,0.2,0.9,236.9,0.00,19.3,22.9,"18:11:12",1
"20/07/13","18:30",0.4,20.2,94.6,1003.6,286.9,0.2,0.9,300.7,0.00,19.3,23.0,"18:20:32",1
"20/07/13","18:40",0.2,20.2,94.7,1002.9,296.7,0.5,0.6,260.3,0.00,19.4,22.7,"18:31:20",1
"20/07/13","18:50",0.0,20.3,94.9,1003.1,299.8,0.7,1.9,338.7,0.00,19.5,22.7,"18:49:36",1
"20/07/13","19:00",0.2,20.2,94.9,1003.4,320.5,0.6,1.7,328.7,0.00,19.4,23.0,"18:50:16",1
"20/07/13","19:10",0.0,20.2,94.9,1003.4,279.8,0.5,0.8,304.6,0.00,19.4,22.9,"19:00:56",1
"20/07/13","19:20",0.4,20.2,95.0,1003.1,261.3,0.5,1.0,240.3,0.00,19.4,22.7,"19:16:08",1
"20/07/13","19:30",1.0,20.2,95.0,1003.1,198.1,0.5,1.1,229.8,0.00,19.4,22.6,"19:20:08",1
"20/07/13","19:40",0.8,20.0,95.1,1002.6,313.4,0.2,0.6,289.4,0.00,19.2,22.8,"19:30:08",1
"20/07/13","19:50",0.2,20.0,95.2,1002.4,204.7,0.3,0.6,207.8,0.00,19.2,22.7,"19:44:00",1
"20/07/13","20:00",0.2,20.0,95.2,1001.9,159.7,0.2,0.6,124.6,0.00,19.2,22.7,"19:54:00",1
"20/07/13","20:10",0.2,20.2,95.4,1001.7,235.8,1.0,2.0,232.0,0.00,19.5,22.7,"20:08:00",1
"20/07/13","20:20",0.0,20.1,95.3,1001.5,229.0,1.2,2.6,221.5,0.00,19.4,22.7,"20:13:20",1
"20/07/13","20:30",0.2,20.2,95.4,1001.7,307.3,0.7,1.4,331.2,0.00,19.5,22.5,"20:27:12",1
"20/07/13","20:40",0.0,20.2,95.4,1001.9,315.0,0.7,1.2,353.3,0.00,19.5,22.7,"20:30:02",1
"20/07/13","20:50",0.0,20.1,95.4,1001.9,324.7,1.0,1.9,338.1,0.00,19.4,22.5,"20:41:20",1
"20/07/13","21:00",0.2,20.1,95.5,1002.2,292.5,0.5,1.1,342.8,0.00,19.4,22.6,"20:57:20",1
"20/07/13","21:10",0.2,20.1,95.5,1002.2,25.4,0.2,1.3,83.7,0.00,19.4,22.6,"21:05:20",1
"20/07/13","21:20",0.2,20.2,95.6,1002.2,316.0,0.6,1.2,338.7,0.00,19.5,22.5,"21:16:40",1
"20/07/13","21:30",0.2,20.2,95.6,1002.4,276.9,0.3,0.6,312.2,0.00,19.5,22.6,"21:22:00",1
"20/07/13","21:40",0.0,20.2,95.7,1001.9,320.3,0.6,1.0,340.8,0.00,19.5,22.6,"21:35:20",1
"20/07/13","21:50",0.0,20.2,95.7,1001.7,285.2,0.5,0.9,250.4,0.00,19.5,22.5,"21:43:28",1
"20/07/13","22:00",0.2,20.2,95.8,1001.9,324.3,0.5,1.0,343.4,0.00,19.5,22.7,"21:53:28",1
"20/07/13","22:10",0.2,20.2,95.8,1001.9,307.5,0.6,1.4,331.1,0.00,19.5,22.5,"22:08:24",1
"20/07/13","22:20",0.2,20.2,95.8,1001.7,335.7,0.5,1.1,0.9,0.00,19.5,22.6,"22:16:16",1
"20/07/13","22:30",0.4,20.2,95.9,1001.7,348.0,0.6,1.1,338.7,0.00,19.6,22.5,"22:28:40",1
"20/07/13","22:40",0.4,20.1,96.0,1001.5,236.5,0.8,1.4,308.5,0.00,19.5,22.5,"22:31:52",1
"20/07/13","22:50",0.2,20.2,96.0,1001.7,248.7,0.5,1.0,235.3,0.00,19.6,22.6,"22:48:08",1
"20/07/13","23:00",0.2,20.3,96.0,1001.7,269.3,0.3,1.0,313.3,0.00,19.7,22.6,"22:54:32",1
"20/07/13","23:10",0.0,20.2,96.0,1001.7,281.3,0.3,0.9,328.2,0.00,19.6,22.7,"23:05:48",1
"20/07/13","23:20",0.0,20.2,96.1,1001.2,313.9,0.5,1.1,0.8,0.00,19.6,22.3,"23:11:12",1
"20/07/13","23:30",0.0,20.3,96.1,1001.5,266.1,0.5,1.0,325.7,0.00,19.7,22.6,"23:20:56",1
"20/07/13","23:40",0.0,20.3,96.1,1001.2,349.1,0.3,1.3,335.5,0.00,19.7,22.5,"23:37:20",1
"20/07/13","23:50",0.0,20.3,96.2,1001.0,325.2,0.8,1.7,342.6,0.00,19.7,22.3,"23:47:04",1
"20/07/13","24:00",0.0,20.3,96.2,1001.0,293.8,0.7,1.2,307.1,0.00,19.7,22.5,"23:50:32",1
